www.pogodaiklimat.ru

Погода и климат >> Архив погоды >> Китай >> Синьцзян-Уйгурский автономный район >> Цзяньфан


ПОГОДА в Цзяньфане

  • Прогноз погоды в Цзяньфане
  • Монитор погоды в Цзяньфане

АРХИВ ПОГОДЫ в Цзяньфане

Время (UTC), дата Ветер
(напр.,м/с)
 
Видим.   Явления Облачность Т
(С)
Тd
(С)
f
(%)
Тe
(С)
Тes
(С)
Комфортность P
(гПа)
Po
(гПа)
Тmin
(С)
Tmax
(С)
R
(мм)
R24
(мм)
S
(см)
18 13.07 С 4
{17}
30 км ?/? +22.9 +11.6 49 +25 +25 комфорт 998.8 911.5 +36.2
21 13.07 С 6 30 км н/о +21.6 +10.7 50 +23 +23 комфорт 998.0 910.4
00 14.07 СВ 6 30 км ясно +23.1 +10.5 45 +25 +26 комфорт 998.6 911.4 0.0
03 14.07 С 1 28 км 9/9
[]
+28.4 +7.6 27 +28 +29 жарко 998.6 912.9
06 14.07 З 4 30 км ясно +34.2 +6.5 18 +32 +45 жарко 995.9 911.9 +20.6
09 14.07 З 4 30 км ясно +36.4 +1.2 11 +33 +41 жарко 993.2 910.0
12 14.07 З 3 29 км 9/9 1500 м
[]
+35.6 +3.0 13 +32 +33 жарко 992.4 909.1
18 14.07 С 9 29 км ?/? +31.1 +6.2 21 +29 +29 жарко 993.1 908.6 +36.8
21 14.07 С 14
{18}
30 км ?/? +29.8 +6.5 23 +29 +29 жарко 992.7 907.9
00 15.07 С 9
{19}
30 км 9/9 1500 м
[]
+27.5 +7.9 29 +27 +27 жарко 994.6 909.0
03 15.07 С 5
{19}
29 км 9/9 1500 м
[]
+30.1 +7.3 24 +29 +30 жарко 995.6 910.6
06 15.07 С 6 30 км 9/9 1500 м
[]
+32.3 +6.5 20 +30 +31 жарко 995.1 910.7 +27.2
09 15.07 В 6
{25}
30 км в посл. час дождь 9/9 1500 м
[]
+27.2 +12.4 40 +29 +29 жарко 996.4 910.5
12 15.07 С 2
{25}
30 км в посл. час дождь 9/9 1500 м
[]
+26.9 +12.2 40 +28 +28 жарко 996.3 910.4 0.7
18 15.07 С 5 30 км ?/? +25.5 +8.5 34 +26 +26 жарко 997.4 911.0 +32.3
21 15.07 С 9 30 км н/о +27.4 +7.3 28 +27 +27 жарко 998.1 912.1
00 16.07 СВ 6 30 км 9/9
[]
+26.4 +7.9 31 +26 +26 жарко 999.7 913.3
03 16.07 С 4 30 км 9/9
[]
+30.4 +8.2 25 +30 +30 жарко 1000.5 915.1
06 16.07 Ю 5 30 км 9/9 1500 м
[]
+31.8 +8.8 24 +31 +32 жарко 999.7 914.8 +25.3
09 16.07 З 2 30 км 9/9 1500 м
[]
+32.8 +7.6 21 +31 +32 жарко 998.6 914.1
12 16.07 ЮЗ 3 30 км 9/9
[]
+32.6 +6.7 20 +31 +31 жарко 999.2 914.5
18 16.07 В 2 27 км ?/? +28.2 +10.0 32 +28 +28 жарко 1001.1 915.1 +33.6
21 16.07 СВ 3 30 км н/о +25.3 +7.9 33 +25 +25 комфорт 1001.3 914.5
00 17.07 В 2 27 км 9/9
[]
+24.7 +10.2 40 +26 +26 жарко 1003.5 916.3
03 17.07 Ю 4 25 км 9/9 1500 м
[]
+29.4 +11.0 32 +30 +31 жарко 1005.0 919.0
06 17.07 Ю 4 25 км 9/9 1500 м
[]
+30.8 +11.2 30 +31 +32 жарко 1004.7 919.1 +24.3
09 17.07 Ю 6 28 км 9/9 1500 м
[]
+32.6 +10.6 26 +32 +33 жарко 1003.1 918.1
12 17.07 Ю 4 29 км 9/9 1500 м
[]
+32.7 +10.1 25 +32 +32 жарко 1002.8 917.9
18 17.07 В 3 30 км ?/? +27.2 +12.1 39 +28 +28 жарко 1004.1 917.6 +33.6
21 17.07 СВ 2 30 км н/о +23.8 +11.5 46 +25 +25 комфорт 1003.6 916.2
00 18.07 ЮЗ 1 30 км 6/6 1500 м
[]
+25.4 +11.6 42 +27 +27 жарко 1003.9 916.9
03 18.07 Ю 4 29 км 4/4 1500 м
[]
+30.9 +11.8 31 +31 +36 жарко 1003.7 918.2
06 18.07 Ю 3 30 км 9/9 1500 м
[]
+35.0 +8.7 20 +33 +35 жарко 1001.7 917.5 +23.0
09 18.07 С 12
{19}
30 км 9/9 1500 м
[]
+31.7 +4.5 18 +29 +29 жарко 1001.3 916.2
12 18.07 С 5
{20}
30 км 9/9 1500 м
[]
+33.3 +4.1 16 +31 +31 жарко 1001.2 916.6
18 18.07 СВ 5 30 км ?/? +25.3 +8.8 35 +26 +26 жарко 1002.3 915.4 +35.4
21 18.07 С 6 26 км н/о +24.0 +8.4 37 +25 +25 комфорт 1002.1 914.9
00 19.07 С 7 30 км 9/9
[]
+26.1 +7.2 30 +26 +26 жарко 1002.0 915.3
03 19.07 Ю 4 28 км 9/9
[]
+31.4 +6.5 21 +30 +31 жарко 1002.6 917.3
06 19.07 З 4 28 км 9/9 1500 м
[]
+35.5 +5.9 16 +33 +34 жарко 1000.4 916.4 +23.2
09 19.07 З 7 26 км 3/3
[]
+38.3 +2.7 11 +35 +37 очень
жарко
997.6 914.6
12 19.07 С 7 30 км 9/9 1500 м
[]
+36.8 -1.2 9 +33 +33 жарко 997.5 914.1
18 19.07 СВ 4 30 км ?/? +28.9 +1.4 17 +27 +27 жарко 998.2 921.1 +38.7
21 19.07 С 7 30 км н/о +29.8 +3.7 19 +28 +28 жарко 997.1 911.9
00 20.07 С 9 29 км 9/9 1500 м
[]
+30.4 +4.2 19 +28 +28 жарко 998.2 913.0
03 20.07 СВ 8
{17}
29 км 9/9 1500 м
[]
+32.4 +3.4 16 +30 +30 жарко 999.6 914.9
06 20.07 З 7
{17}
28 км 9/9 1500 м
[]
+32.4 +5.1 18 +30 +31 жарко 1000.3 922.7 +28.9
09 20.07 З 12
{17}
17 км 9/9 1500 м
[]
+31.0 +6.1 21 +29 +29 жарко 1000.0 914.9

 

Местоположение метеостанции Цзяньфан (Синьцзян-Уйгурский автономный район, Китай): широта 43.22 долгота 91.73 высота над уровнем моря 792 м.

В архиве по умолчанию представлена погода в Цзяньфане за последнюю неделю. Архивные данные за месяц целиком и за предыдущие месяцы, начиная с января 2011 года, Вы можете получить, выбрав интересующий диапазон дат из раскрывающегося списка и нажав кнопку "Ввод!".


*Определитесь, кто Вы:
робот инопланетянин человек

Внимание! Время в таблицах - всемирное. Для получения местного времени необходимо прибавить поправку, которая равна 8 ч.

Смотрите также архив погоды в соседних городах и на ближайших метеорологических станциях:

Погода в Хами (Синьцзян-Уйгурский автономный район, Китай) (152 км)
Погода в Цитае (Синьцзян-Уйгурский автономный район, Китай) (195 км)
Погода в Турфане (Синьцзян-Уйгурский автономный район, Китай) (208 км)
Погода в Бейта Шан (Синьцзян-Уйгурский автономный район, Китай) (258 км)
Погода в Наомаоху (Синьцзян-Уйгурский автономный район, Китай) (278 км)
Погода в Байтаге (Монголия) (323 км)
Погода в Урумчи (Синьцзян-Уйгурский автономный район, Китай) (335 км)
Погода в Тонхиле (Монголия) (385 км)
Погода в Жаргаланте (Монголия) (415 км)
Погода в Дуньхуане (Ганьсу, Китай) (420 км)

Пояснения к столбцам:

Ветер - указаны скорость ветра в м/с - средняя за 10 мин, порывы в срок и между сроками (в фигурных скобках) и направление, откуда дует ветер: С - северный, СВ - северо-восточный, В - восточный, ЮВ - юго-восточный, Ю - южный, ЮЗ - юго-западный, З - западный, СЗ - северо-западный.
Видимость - горизонтальная дальность видимости в метрах или километрах. При видимости от 1 до 10 км при отсутствии осадков обычно наблюдается дымка, при ухудшении видимости до 1 км и менее - туман. В сухую погоду видимость может ухудшаться дымом, пылью или мглою.
Явления - указаны атмосферные явления, наблюдавшиеся в срок или в последний час перед сроком; фигурными скобками обозначены явления, наблюдавшиеся между сроками (за 1-3 часа до срока); квадратными скобками обозначены град или гололедные отложения с указанием их диаметра в мм.
Облачность - указаны через наклонную черту общая и нижняя облачность в баллах и высота нижней границы облаков в метрах; квадратными скобками обозначены формы облаков: Ci - перистые, Cs - перисто-слоистые, Cc - перисто-кучевые, Ac - высококучевые, As - высокослоистые, Sc - слоисто-кучевые, Ns - слоисто-дождевые, Cu - кучевые, Cb - кучево-дождевые. Подробнее классификацию облаков см. в Атласе облаков (PDF).
T - Температура воздуха - температура, измеренная на высоте 2 м над землей.
Td - Температура точки росы - температура, при понижении до которой содержащийся в воздухе водяной пар достигнет насыщения.
f - Относительная влажность воздуха - влажноcть воздуха, измеренная на высоте 2 м над землей.
Te - Эффективная температура - температура, которую ощущает одетый по сезону человек в тени. Характеристика душности погоды. При расчете учитывается влияние влажности воздуха и скорости ветра на теплоощущения человека.
Tes - Эффективная температура на солнце - температура, которую ощущает человек, с поправкой на солнечный нагрев. Характеристика знойности погоды. Зависит от высоты солнца над горизонтом, облачности и скорости ветра. Ночью, в пасмурную погоду, а также при ветре 12 м/с и более поправка равна нулю.
P - Атмосферное давление - приведенное к уровню моря атмосферное давление.
Po - Атмосферное давление - измеренное на уровне метеостанции атмосферное давление.
Tmin - Минимальная температура - минимум температуры воздуха на высоте 2 м над землей.
Tmax - Максимальная температура - максимум температуры воздуха на высоте 2 м над землей.
R - Количество осадков - Количество выпавших осадков за период времени, мм. При наведении курсора мыши на число - период времени, за который выпало указанное количество осадков.
R24 - Количество осадков - Количество выпавших осадков за 24 часа, мм.
S - Снежный покров - Высота снежного покрова, см. При наведении курсора мыши на число - состояние снежного покрова и степень покрытия местности в баллах.